"Period start","avg(HW err(1)/warn(2) (#))","avg(Visibility (m))","avg(Weather code (#))","avg(Precip intensity (mm/h))","min(HW err(1)/warn(2) (#))","max(HW err(1)/warn(2) (#))","std(HW err(1)/warn(2) (#))","med(HW err(1)/warn(2) (#))","min(Visibility (m))","max(Visibility (m))","std(Visibility (m))","med(Visibility (m))","min(Weather code (#))","max(Weather code (#))","std(Weather code (#))","med(Weather code (#))","min(Precip intensity (mm/h))","max(Precip intensity (mm/h))","std(Precip intensity (mm/h))","med(Precip intensity (mm/h))"
2016-08-17 00:00:00,0,44461,28,0.18,0,2,1,0,27948,50000,6988,47552,0,61,28,26,0.00,0.70,0.26,0.03
2016-08-17 00:10:00,2,48602,10,0.33,2,2,0,2,44695,50000,1945,49898,0,51,20,0,0.00,2.05,0.68,0.00
2016-08-17 00:20:00,2,49994,0,0.00,0,2,1,2,49937,50000,19,50000,0,0,0,0,0.00,0.00,0.00,0.00
2016-08-17 00:30:00,2,42111,0,0.00,2,2,0,2,31765,50000,6337,42647,0,0,0,0,0.00,0.00,0.00,0.00
2016-08-17 00:40:00,2,46561,0,0.00,0,2,1,2,40609,50000,3435,47644,0,0,0,0,0.00,0.00,0.00,0.00
2016-08-17 00:50:00,0,45420,0,0.00,0,0,0,0,38357,50000,3640,45718,0,0,0,0,0.00,0.00,0.00,0.00
2016-08-17 01:00:00,2,48308,0,0.00,0,2,1,2,43564,50000,2608,50000,0,0,0,0,0.00,0.00,0.00,0.00
2016-08-17 01:10:00,2,44150,0,0.00,2,2,0,2,34912,50000,5628,46130,0,0,0,0,0.00,0.00,0.00,0.00
2016-08-17 01:20:00,2,44984,0,0.00,2,2,0,2,24829,50000,7709,48949,0,0,0,0,0.00,0.00,0.00,0.00
2016-08-17 01:30:00,2,41062,0,0.00,0,2,1,2,31400,50000,5922,43002,0,0,0,0,0.00,0.00,0.00,0.00
2016-08-17 01:40:00,1,47268,0,0.00,0,2,1,2,40133,50000,3745,50000,0,0,0,0,0.00,0.00,0.00,0.00
2016-08-17 01:50:00,0,43068,0,0.00,0,0,0,0,36226,50000,4400,43268,0,0,0,0,0.00,0.00,0.00,0.00
2016-08-17 02:00:00,0,39871,33,0.15,0,2,1,0,25617,50000,9355,43586,0,61,27,51,0.00,0.75,0.22,0.05
2016-08-17 02:10:00,2,47307,10,0.00,2,2,0,2,37026,50000,4004,48959,0,51,20,0,0.00,0.00,0.00,0.00
2016-08-17 02:20:00,2,43430,0,0.00,2,2,0,2,24719,50000,8613,48498,0,0,0,0,0.00,0.00,0.00,0.00
2016-08-17 02:30:00,2,43670,0,0.00,0,2,1,2,28555,50000,7785,48229,0,0,0,0,0.00,0.00,0.00,0.00
2016-08-17 02:40:00,1,41401,0,0.00,0,2,1,2,31388,50000,7444,42458,0,0,0,0,0.00,0.00,0.00,0.00
2016-08-17 02:50:00,0,48159,0,0.00,0,0,0,0,43553,50000,2044,48716,0,0,0,0,0.00,0.00,0.00,0.00
2016-08-17 03:00:00,0,47086,0,0.00,0,0,0,0,37532,50000,4449,50000,0,0,0,0,0.00,0.00,0.00,0.00
2016-08-17 03:10:00,1,41988,0,0.00,0,2,1,2,27735,50000,8946,47496,0,0,0,0,0.00,0.00,0.00,0.00
2016-08-17 03:20:00,1,42374,0,0.00,0,2,1,0,35573,50000,3760,42464,0,0,0,0,0.00,0.00,0.00,0.00
2016-08-17 03:30:00,0,45293,0,0.00,0,0,0,0,38540,50000,4352,45502,0,0,0,0,0.00,0.00,0.00,0.00
2016-08-17 03:40:00,0,50000,0,0.00,0,0,0,0,50000,50000,0,50000,0,0,0,0,0.00,0.00,0.00,0.00
2016-08-17 03:50:00,0,47112,0,0.00,0,0,0,0,39879,50000,3191,48440,0,0,0,0,0.00,0.00,0.00,0.00
2016-08-17 04:00:00,0,47975,0,0.00,0,2,1,0,42467,50000,2828,49551,0,0,0,0,0.00,0.00,0.00,0.00
2016-08-17 04:10:00,2,48414,0,0.00,0,2,1,2,42409,50000,2195,48921,0,0,0,0,0.00,0.00,0.00,0.00
2016-08-17 04:20:00,0,46962,0,0.00,0,0,0,0,43474,50000,2497,46446,0,0,0,0,0.00,0.00,0.00,0.00
2016-08-17 04:30:00,0,47778,0,0.00,0,0,0,0,40064,50000,3073,49346,0,0,0,0,0.00,0.00,0.00,0.00
2016-08-17 04:40:00,1,47376,0,0.00,0,2,1,1,42788,50000,2966,48912,0,0,0,0,0.00,0.00,0.00,0.00
2016-08-17 04:50:00,0,48806,0,0.00,0,0,0,0,42738,50000,2425,50000,0,0,0,0,0.00,0.00,0.00,0.00
2016-08-17 05:00:00,1,49136,0,0.00,0,2,1,0,45324,50000,1735,50000,0,0,0,0,0.00,0.00,0.00,0.00
2016-08-17 05:10:00,0,46744,0,0.00,0,2,1,0,36274,50000,4104,47834,0,0,0,0,0.00,0.00,0.00,0.00
2016-08-17 05:20:00,0,45803,0,0.00,0,0,0,0,34547,50000,5321,48598,0,0,0,0,0.00,0.00,0.00,0.00
2016-08-17 05:30:00,0,48956,0,0.00,0,0,0,0,45940,50000,1326,49662,0,0,0,0,0.00,0.00,0.00,0.00
2016-08-17 05:40:00,0,50000,0,0.00,0,0,0,0,50000,50000,0,50000,0,0,0,0,0.00,0.00,0.00,0.00
2016-08-17 05:50:00,0,48142,0,0.00,0,0,0,0,42411,50000,2587,49867,0,0,0,0,0.00,0.00,0.00,0.00
2016-08-17 06:00:00,0,48465,0,0.00,0,0,0,0,42201,50000,2479,49828,0,0,0,0,0.00,0.00,0.00,0.00
2016-08-17 06:10:00,0,49897,0,0.00,0,0,0,0,48972,50000,308,50000,0,0,0,0,0.00,0.00,0.00,0.00
2016-08-17 06:20:00,0,49124,0,0.00,0,0,0,0,45751,50000,1407,50000,0,0,0,0,0.00,0.00,0.00,0.00
2016-08-17 06:30:00,0,49528,0,0.00,0,0,0,0,47523,50000,920,50000,0,0,0,0,0.00,0.00,0.00,0.00
2016-08-17 06:40:00,0,50000,0,0.00,0,0,0,0,50000,50000,0,50000,0,0,0,0,0.00,0.00,0.00,0.00
2016-08-17 06:50:00,0,47553,0,0.00,0,0,0,0,39167,50000,3594,50000,0,0,0,0,0.00,0.00,0.00,0.00
2016-08-17 07:00:00,0,49019,0,0.00,0,0,0,0,45817,50000,1648,50000,0,0,0,0,0.00,0.00,0.00,0.00
2016-08-17 07:10:00,0,48536,0,0.00,0,0,0,0,42705,50000,2441,50000,0,0,0,0,0.00,0.00,0.00,0.00
2016-08-17 07:20:00,0,49930,0,0.00,0,0,0,0,49567,50000,144,50000,0,0,0,0,0.00,0.00,0.00,0.00
2016-08-17 07:30:00,0,47220,0,0.00,0,0,0,0,40200,50000,3771,50000,0,0,0,0,0.00,0.00,0.00,0.00
2016-08-17 07:40:00,0,49610,0,0.00,0,0,0,0,46953,50000,921,50000,0,0,0,0,0.00,0.00,0.00,0.00
2016-08-17 07:50:00,0,49384,0,0.00,0,0,0,0,46203,50000,1251,50000,0,0,0,0,0.00,0.00,0.00,0.00
2016-08-17 08:00:00,0,49186,0,0.00,0,0,0,0,45065,50000,1673,50000,0,0,0,0,0.00,0.00,0.00,0.00
2016-08-17 08:10:00,0,49603,0,0.00,0,0,0,0,46978,50000,920,50000,0,0,0,0,0.00,0.00,0.00,0.00
2016-08-17 08:20:00,0,46790,0,0.00,0,0,0,0,35532,50000,4576,49274,0,0,0,0,0.00,0.00,0.00,0.00
2016-08-17 08:30:00,0,49854,0,0.00,0,0,0,0,48621,50000,412,50000,0,0,0,0,0.00,0.00,0.00,0.00
2016-08-17 08:40:00,0,49218,0,0.00,0,0,0,0,45644,50000,1576,50000,0,0,0,0,0.00,0.00,0.00,0.00
2016-08-17 08:50:00,0,49852,0,0.00,0,0,0,0,48834,50000,352,50000,0,0,0,0,0.00,0.00,0.00,0.00
2016-08-17 09:00:00,0,49507,0,0.00,0,0,0,0,47214,50000,979,50000,0,0,0,0,0.00,0.00,0.00,0.00
2016-08-17 09:10:00,0,49381,0,0.00,0,0,0,0,45091,50000,1462,50000,0,0,0,0,0.00,0.00,0.00,0.00
2016-08-17 09:20:00,0,50000,0,0.00,0,0,0,0,50000,50000,0,50000,0,0,0,0,0.00,0.00,0.00,0.00
2016-08-17 09:30:00,0,50000,0,0.00,0,0,0,0,50000,50000,0,50000,0,0,0,0,0.00,0.00,0.00,0.00
2016-08-17 09:40:00,0,50000,0,0.00,0,0,0,0,50000,50000,0,50000,0,0,0,0,0.00,0.00,0.00,0.00
2016-08-17 09:50:00,0,50000,0,0.00,0,0,0,0,50000,50000,0,50000,0,0,0,0,0.00,0.00,0.00,0.00
2016-08-17 10:00:00,0,50000,0,0.00,0,0,0,0,50000,50000,0,50000,0,0,0,0,0.00,0.00,0.00,0.00
2016-08-17 10:10:00,0,50000,0,0.00,0,0,0,0,50000,50000,0,50000,0,0,0,0,0.00,0.00,0.00,0.00
2016-08-17 10:20:00,0,49952,0,0.00,0,0,0,0,49520,50000,144,50000,0,0,0,0,0.00,0.00,0.00,0.00
2016-08-17 10:30:00,0,49492,0,0.00,0,0,0,0,47260,50000,1019,50000,0,0,0,0,0.00,0.00,0.00,0.00
2016-08-17 10:40:00,0,49994,0,0.00,0,0,0,0,49942,50000,17,50000,0,0,0,0,0.00,0.00,0.00,0.00
2016-08-17 10:50:00,0,50000,0,0.00,0,0,0,0,50000,50000,0,50000,0,0,0,0,0.00,0.00,0.00,0.00
2016-08-17 11:00:00,0,49992,0,0.00,0,0,0,0,49923,50000,23,50000,0,0,0,0,0.00,0.00,0.00,0.00
2016-08-17 11:10:00,0,50000,0,0.00,0,0,0,0,50000,50000,0,50000,0,0,0,0,0.00,0.00,0.00,0.00
2016-08-17 11:20:00,0,50000,0,0.00,0,0,0,0,50000,50000,0,50000,0,0,0,0,0.00,0.00,0.00,0.00
2016-08-17 11:30:00,0,50000,0,0.00,0,0,0,0,50000,50000,0,50000,0,0,0,0,0.00,0.00,0.00,0.00
2016-08-17 11:40:00,0,50000,0,0.00,0,0,0,0,50000,50000,0,50000,0,0,0,0,0.00,0.00,0.00,0.00
2016-08-17 11:50:00,0,50000,0,0.00,0,0,0,0,50000,50000,0,50000,0,0,0,0,0.00,0.00,0.00,0.00
2016-08-17 12:00:00,0,50000,0,0.00,0,0,0,0,50000,50000,0,50000,0,0,0,0,0.00,0.00,0.00,0.00
2016-08-17 12:10:00,0,50000,0,0.00,0,0,0,0,50000,50000,0,50000,0,0,0,0,0.00,0.00,0.00,0.00
2016-08-17 12:20:00,0,50000,0,0.00,0,0,0,0,50000,50000,0,50000,0,0,0,0,0.00,0.00,0.00,0.00
2016-08-17 12:30:00,1,50000,0,0.00,0,2,1,1,50000,50000,0,50000,0,0,0,0,0.00,0.00,0.00,0.00
2016-08-17 12:40:00,2,50000,0,0.00,2,2,0,2,50000,50000,0,50000,0,0,0,0,0.00,0.00,0.00,0.00
2016-08-17 12:50:00,2,50000,0,0.00,2,2,0,2,50000,50000,0,50000,0,0,0,0,0.00,0.00,0.00,0.00
2016-08-17 13:00:00,2,50000,0,0.00,2,2,0,2,50000,50000,0,50000,0,0,0,0,0.00,0.00,0.00,0.00
2016-08-17 13:10:00,2,50000,0,0.00,2,2,0,2,50000,50000,0,50000,0,0,0,0,0.00,0.00,0.00,0.00
2016-08-17 13:20:00,2,49888,0,0.00,2,2,0,2,49314,50000,231,50000,0,0,0,0,0.00,0.00,0.00,0.00
2016-08-17 13:30:00,2,50000,0,0.00,2,2,0,2,50000,50000,0,50000,0,0,0,0,0.00,0.00,0.00,0.00
2016-08-17 13:40:00,2,50000,0,0.00,2,2,0,2,50000,50000,0,50000,0,0,0,0,0.00,0.00,0.00,0.00
2016-08-17 13:50:00,2,50000,0,0.00,2,2,0,2,50000,50000,0,50000,0,0,0,0,0.00,0.00,0.00,0.00
2016-08-17 14:00:00,2,50000,0,0.00,2,2,0,2,50000,50000,0,50000,0,0,0,0,0.00,0.00,0.00,0.00
2016-08-17 14:10:00,2,50000,0,0.00,2,2,0,2,50000,50000,0,50000,0,0,0,0,0.00,0.00,0.00,0.00
2016-08-17 14:20:00,2,50000,0,0.00,2,2,0,2,50000,50000,0,50000,0,0,0,0,0.00,0.00,0.00,0.00
2016-08-17 14:30:00,2,50000,0,0.00,2,2,0,2,50000,50000,0,50000,0,0,0,0,0.00,0.00,0.00,0.00
2016-08-17 14:40:00,2,50000,0,0.00,2,2,0,2,50000,50000,0,50000,0,0,0,0,0.00,0.00,0.00,0.00
2016-08-17 14:50:00,2,50000,0,0.00,2,2,0,2,50000,50000,0,50000,0,0,0,0,0.00,0.00,0.00,0.00
2016-08-17 15:00:00,2,50000,0,0.00,2,2,0,2,50000,50000,0,50000,0,0,0,0,0.00,0.00,0.00,0.00
2016-08-17 15:10:00,2,50000,0,0.00,2,2,0,2,50000,50000,0,50000,0,0,0,0,0.00,0.00,0.00,0.00
2016-08-17 15:20:00,2,50000,0,0.00,0,2,1,2,50000,50000,0,50000,0,0,0,0,0.00,0.00,0.00,0.00
2016-08-17 15:30:00,0,50000,0,0.00,0,0,0,0,50000,50000,0,50000,0,0,0,0,0.00,0.00,0.00,0.00
2016-08-17 15:40:00,0,50000,0,0.00,0,0,0,0,50000,50000,0,50000,0,0,0,0,0.00,0.00,0.00,0.00
2016-08-17 15:50:00,0,50000,0,0.00,0,0,0,0,50000,50000,0,50000,0,0,0,0,0.00,0.00,0.00,0.00
2016-08-17 16:00:00,0,50000,0,0.00,0,0,0,0,50000,50000,0,50000,0,0,0,0,0.00,0.00,0.00,0.00
2016-08-17 16:10:00,0,50000,0,0.00,0,0,0,0,50000,50000,0,50000,0,0,0,0,0.00,0.00,0.00,0.00
2016-08-17 16:20:00,0,50000,0,0.00,0,0,0,0,50000,50000,0,50000,0,0,0,0,0.00,0.00,0.00,0.00
2016-08-17 16:30:00,2,50000,0,0.00,0,2,1,2,50000,50000,0,50000,0,0,0,0,0.00,0.00,0.00,0.00
2016-08-17 16:40:00,2,50000,0,0.00,2,2,0,2,50000,50000,0,50000,0,0,0,0,0.00,0.00,0.00,0.00
2016-08-17 16:50:00,2,50000,0,0.00,2,2,0,2,50000,50000,0,50000,0,0,0,0,0.00,0.00,0.00,0.00
2016-08-17 17:00:00,2,50000,0,0.00,2,2,0,2,50000,50000,0,50000,0,0,0,0,0.00,0.00,0.00,0.00
2016-08-17 17:10:00,2,50000,0,0.00,2,2,0,2,50000,50000,0,50000,0,0,0,0,0.00,0.00,0.00,0.00
2016-08-17 17:20:00,2,50000,0,0.00,2,2,0,2,50000,50000,0,50000,0,0,0,0,0.00,0.00,0.00,0.00
2016-08-17 17:30:00,2,50000,0,0.00,2,2,0,2,50000,50000,0,50000,0,0,0,0,0.00,0.00,0.00,0.00
2016-08-17 17:40:00,2,50000,0,0.00,2,2,0,2,50000,50000,0,50000,0,0,0,0,0.00,0.00,0.00,0.00
2016-08-17 17:50:00,2,49936,0,0.00,0,2,1,2,49364,50000,191,50000,0,0,0,0,0.00,0.00,0.00,0.00
2016-08-17 18:00:00,1,50000,0,0.00,0,2,1,0,50000,50000,0,50000,0,0,0,0,0.00,0.00,0.00,0.00
2016-08-17 18:10:00,2,50000,0,0.00,0,2,1,2,50000,50000,0,50000,0,0,0,0,0.00,0.00,0.00,0.00
2016-08-17 18:20:00,2,50000,0,0.00,2,2,0,2,50000,50000,0,50000,0,0,0,0,0.00,0.00,0.00,0.00
2016-08-17 18:30:00,2,49927,0,0.00,0,2,1,2,49268,50000,220,50000,0,0,0,0,0.00,0.00,0.00,0.00
2016-08-17 18:40:00,0,50000,0,0.00,0,0,0,0,50000,50000,0,50000,0,0,0,0,0.00,0.00,0.00,0.00
2016-08-17 18:50:00,2,50000,0,0.00,0,2,1,2,50000,50000,0,50000,0,0,0,0,0.00,0.00,0.00,0.00
2016-08-17 19:00:00,2,48021,12,0.04,2,2,0,2,35119,50000,4543,50000,0,40,18,0,0.00,0.35,0.11,0.00
2016-08-17 19:10:00,2,50000,0,0.00,2,2,0,2,50000,50000,0,50000,0,0,0,0,0.00,0.00,0.00,0.00
2016-08-17 19:20:00,2,49960,0,0.00,2,2,0,2,49596,50000,121,50000,0,0,0,0,0.00,0.00,0.00,0.00
2016-08-17 19:30:00,2,50000,0,0.00,2,2,0,2,50000,50000,0,50000,0,0,0,0,0.00,0.00,0.00,0.00
2016-08-17 19:40:00,2,49944,0,0.00,2,2,0,2,49443,50000,167,50000,0,0,0,0,0.00,0.00,0.00,0.00
2016-08-17 19:50:00,2,50000,0,0.00,2,2,0,2,50000,50000,0,50000,0,0,0,0,0.00,0.00,0.00,0.00
2016-08-17 20:00:00,2,49962,0,0.00,2,2,0,2,49615,50000,116,50000,0,0,0,0,0.00,0.00,0.00,0.00
2016-08-17 20:10:00,2,49982,0,0.00,2,2,0,2,49816,50000,55,50000,0,0,0,0,0.00,0.00,0.00,0.00
2016-08-17 20:20:00,2,49961,0,0.00,2,2,0,2,49607,50000,118,50000,0,0,0,0,0.00,0.00,0.00,0.00
2016-08-17 20:30:00,2,49987,0,0.00,2,2,0,2,49868,50000,40,50000,0,0,0,0,0.00,0.00,0.00,0.00
2016-08-17 20:40:00,2,49784,0,0.00,2,2,0,2,47845,50000,646,50000,0,0,0,0,0.00,0.00,0.00,0.00
2016-08-17 20:50:00,2,50000,0,0.00,2,2,0,2,50000,50000,0,50000,0,0,0,0,0.00,0.00,0.00,0.00
2016-08-17 21:00:00,2,50000,0,0.00,2,2,0,2,50000,50000,0,50000,0,0,0,0,0.00,0.00,0.00,0.00
2016-08-17 21:10:00,2,45600,6,0.09,2,2,0,2,28209,50000,7925,50000,0,61,18,0,0.00,0.90,0.27,0.00
2016-08-17 21:20:00,2,43999,57,0.59,2,2,0,2,34854,49308,4508,45588,51,61,5,61,0.00,2.90,0.81,0.35
2016-08-17 21:30:00,2,41282,28,0.02,2,2,0,2,32972,50000,5975,40422,0,61,29,26,0.00,0.10,0.03,0.00
2016-08-17 21:40:00,2,49243,0,0.00,2,2,0,2,45773,50000,1366,50000,0,0,0,0,0.00,0.00,0.00,0.00
2016-08-17 21:50:00,2,47625,0,0.00,2,2,0,2,41434,50000,2905,49457,0,0,0,0,0.00,0.00,0.00,0.00
2016-08-17 22:00:00,2,47963,0,0.00,2,2,0,2,38257,50000,3910,50000,0,0,0,0,0.00,0.00,0.00,0.00
2016-08-17 22:10:00,2,47339,0,0.00,2,2,0,2,34430,50000,4739,50000,0,0,0,0,0.00,0.00,0.00,0.00
2016-08-17 22:20:00,2,46127,0,0.00,2,2,0,2,34162,50000,6071,50000,0,0,0,0,0.00,0.00,0.00,0.00
2016-08-17 22:30:00,2,44712,0,0.00,2,2,0,2,34861,50000,4640,44404,0,0,0,0,0.00,0.00,0.00,0.00
2016-08-17 22:40:00,2,49757,0,0.00,2,2,0,2,48395,50000,516,50000,0,0,0,0,0.00,0.00,0.00,0.00
2016-08-17 22:50:00,2,47585,0,0.00,2,2,0,2,41778,50000,3045,49182,0,0,0,0,0.00,0.00,0.00,0.00
2016-08-17 23:00:00,2,48685,0,0.00,2,2,0,2,41571,50000,2713,50000,0,0,0,0,0.00,0.00,0.00,0.00
2016-08-17 23:10:00,2,48964,0,0.00,2,2,0,2,43524,50000,1973,50000,0,0,0,0,0.00,0.00,0.00,0.00
2016-08-17 23:20:00,2,47775,0,0.00,2,2,0,2,41248,50000,3360,49958,0,0,0,0,0.00,0.00,0.00,0.00
2016-08-17 23:30:00,2,42894,0,0.00,2,2,0,2,32144,50000,4521,43238,0,0,0,0,0.00,0.00,0.00,0.00
2016-08-17 23:40:00,2,44310,0,0.00,2,2,0,2,31954,50000,6960,49356,0,0,0,0,0.00,0.00,0.00,0.00
2016-08-17 23:50:00,2,40523,0,0.00,2,2,0,2,30950,50000,7228,41720,0,0,0,0,0.00,0.00,0.00,0.00
